"2016-05-14 00:00:00",1631451,7.714,105,8.03,1.584,17.28,104.4764,10.73,12.03,56.8,0,110.5,13.04,11.52,67.0
"2016-05-14 00:00:30",1631452,7.256,98.2,6.084,1.257,15.03,104.466,10.71,11.95,56.62,0,110.5,13.04,11.50,60.2
"2016-05-14 00:01:00",1631453,6.529,105.9,5.454,1.356,14.58,104.4643,10.7,11.83,56.59,0,110.5,13.04,11.49,67.9
"2016-05-14 00:01:30",1631454,6.063,101.2,2.445,0.191,13.23,104.4643,10.7,11.77,56.67,0,110.5,13.09,11.49,63.2
"2016-05-14 00:02:00",1631455,6.629,102.1,6.826,1.26,15.06,104.464,10.7,11.93,56.81,0,110.5,13.04,11.49,64.1
"2016-05-14 00:02:30",1631456,6.911,104.6,6.889,1.465,15.69,104.4589,10.69,11.89,56.82,0,110.4,13.04,11.48,66.6
"2016-05-14 00:03:00",1631457,6.322,106.3,7.763,1.322,15.16,104.4463,10.66,11.88,56.84,0,110.5,13.05,11.44,68.3
"2016-05-14 00:03:30",1631458,6.986,112.3,8.63,1.505,16.32,104.4313,10.62,11.93,56.96,0,110.5,13.05,11.41,74.3
"2016-05-14 00:04:00",1631459,6.777,109.9,7.107,1.313,15.14,104.4313,10.62,11.87,56.95,0,110.5,13.05,11.41,71.9
"2016-05-14 00:04:30",1631460,6.012,109.6,4.797,1.314,14.38,104.4325,10.62,11.76,56.9,0,110.4,13.04,11.41,71.6
"2016-05-14 00:05:00",1631461,5.182,108.7,3.469,0.244,13.2,104.4325,10.62,11.69,56.85,0,110.4,13.08,11.41,70.7
"2016-05-14 00:05:30",1631462,5.455,115.1,9.1,1.087,14.8,104.4355,10.63,11.76,56.9,0,110.4,13.03,11.42,77.1
"2016-05-14 00:06:00",1631463,5.574,117,5.777,1.334,15.03,104.4324,10.62,11.79,56.98,0,110.4,13.03,11.41,79.0
"2016-05-14 00:06:30",1631464,5.827,116.4,6.842,1.557,15.73,104.4281,10.61,11.76,57,0,110.4,13.04,11.40,78.4
"2016-05-14 00:07:00",1631465,6.404,109.5,5.864,1.357,15.46,104.4222,10.59,11.84,57.19,0,110.4,13.03,11.38,71.5
"2016-05-14 00:07:30",1631466,7.306,110.8,8.53,1.516,16.77,104.4113,10.57,11.89,57.4,0,110.4,13.03,11.35,72.8
"2016-05-14 00:08:00",1631467,5.926,105.7,10.81,1.459,15.41,104.4152,10.58,11.75,57.39,0,110.5,13.03,11.37,67.7
"2016-05-14 00:08:30",1631468,5.661,106.8,4.88,0.676,13.22,104.4131,10.57,11.66,57.46,0,110.4,13.08,11.36,68.8
"2016-05-14 00:09:00",1631469,6.386,106.9,2.807,0.32,13.29,104.4161,10.58,11.62,57.68,0,110.4,13.09,11.37,68.9
"2016-05-14 00:09:30",1631470,7.232,113,9.16,1.268,15.47,104.4217,10.59,11.72,57.83,0,110.4,13.04,11.38,75.0
"2016-05-14 00:10:00",1631471,6.351,112.2,5.384,1.402,15.08,104.4222,10.59,11.71,57.72,0,110.4,13.05,11.38,74.2
"2016-05-14 00:10:30",1631472,6.308,113.7,6.301,1.294,15.54,104.424,10.6,11.78,57.78,0,110.4,13.05,11.39,75.7
"2016-05-14 00:11:00",1631473,7.846,118,8.05,1.445,16.48,104.4193,10.59,11.75,57.74,0,110.4,13.05,11.38,80.0
"2016-05-14 00:11:30",1631474,6.282,115.9,7.362,1.493,15.33,104.4132,10.57,11.78,57.74,0,110.4,13.05,11.36,77.9
"2016-05-14 00:12:00",1631475,6.721,113.8,5.273,1.097,13.8,104.4012,10.54,11.58,57.52,0,110.4,13.05,11.33,75.8
"2016-05-14 00:12:30",1631476,6.115,110.6,2.106,0.282,13.15,104.3978,10.53,11.56,57.47,0,110.4,13.1,11.32,72.6
"2016-05-14 00:13:00",1631477,6.372,116.1,6.288,1.455,14.87,104.3972,10.53,11.67,57.66,0,110.4,13.05,11.32,78.1
"2016-05-14 00:13:30",1631478,6.498,107.1,8.34,1.419,15.29,104.3975,10.53,11.71,57.64,0,110.4,13.05,11.32,69.1
"2016-05-14 00:14:00",1631479,6.915,102.8,9.36,1.501,16.06,104.3967,10.53,11.64,57.61,0,110.4,13.05,11.32,64.8
"2016-05-14 00:14:30",1631480,7.058,106.6,7.273,1.484,17.07,104.3888,10.51,11.72,57.81,0,110.4,13.05,11.30,68.6
"2016-05-14 00:15:00",1631481,6.178,102.3,6.302,1.234,15.12,104.382,10.49,11.68,57.81,0,110.4,13.05,11.28,64.3
"2016-05-14 00:15:30",1631482,5.948,104.3,6.03,1.187,14.55,104.3694,10.46,11.57,57.72,0,110.4,13.05,11.25,66.3
"2016-05-14 00:16:00",1631483,6.569,106.1,1.563,0.168,13.07,104.364,10.45,11.48,57.74,0,110.4,13.1,11.23,68.1
"2016-05-14 00:16:30",1631484,7.369,111.7,8.48,1.372,14.65,104.364,10.45,11.58,58.01,0,110.4,13.05,11.23,73.7
"2016-05-14 00:17:00",1631485,6.615,116.3,10.23,1.497,14.98,104.364,10.45,11.59,58.25,0,110.4,13.05,11.23,78.3
"2016-05-14 00:17:30",1631486,7.196,113.8,9.14,1.626,16.44,104.3637,10.44,11.67,58.17,0,110.4,13.05,11.23,75.8
"2016-05-14 00:18:00",1631487,7.138,115.3,8.45,1.486,15.9,104.3578,10.43,11.65,57.96,0,110.4,13.05,11.22,77.3
"2016-05-14 00:18:30",1631488,7.377,120.8,7.204,1.524,15.57,104.3502,10.41,11.59,58.19,0,110.4,13.05,11.20,82.8
"2016-05-14 00:19:00",1631489,6.011,116.8,5.389,0.99,13.87,104.3375,10.38,11.52,58.55,0,110.4,13.06,11.17,78.8
"2016-05-14 00:19:30",1631490,6.129,117.5,3.074,0.506,13.09,104.3321,10.36,11.42,58.47,0,110.4,13.1,11.15,79.5
"2016-05-14 00:20:00",1631491,6.632,116.8,6.813,0.794,13.95,104.3302,10.36,11.51,58.28,0,110.4,13.06,11.15,78.8
"2016-05-14 00:20:30",1631492,7.04,115.7,8.1,1.506,15.75,104.3302,10.36,11.5,58.16,0,110.4,13.06,11.15,77.7
"2016-05-14 00:21:00",1631493,6.13,117.9,8.32,1.604,16.25,104.3302,10.36,11.63,58.22,0,110.4,13.05,11.15,79.9
"2016-05-14 00:21:30",1631494,6.187,108.7,8.56,1.49,15.56,104.3302,10.36,11.56,58.12,0,110.4,13.05,11.15,70.7
"2016-05-14 00:22:00",1631495,6.33,111.8,8.06,1.582,15.76,104.3302,10.36,11.58,58.08,0,110.4,13.05,11.15,73.8
"2016-05-14 00:22:30",1631496,5.246,109,5.306,1.162,13.72,104.3302,10.36,11.42,57.88,0,110.4,13.05,11.15,71.0
"2016-05-14 00:23:00",1631497,4.975,110.7,2.118,0.266,12.99,104.3254,10.35,11.38,57.88,0,110.4,13.1,11.13,72.7
"2016-05-14 00:23:30",1631498,5.248,110.5,4.728,0.174,13.28,104.322,10.34,11.37,57.89,0,110.4,13.1,11.13,72.5
"2016-05-14 00:24:00",1631499,6.444,112.7,5.985,1.448,15.98,104.3183,10.33,11.55,58.09,0,110.4,13.05,11.12,74.7
"2016-05-14 00:24:30",1631500,6.36,114.3,8.67,1.482,15.42,104.311,10.31,11.49,58.07,0,110.4,13.05,11.10,76.3
"2016-05-14 00:25:00",1631501,5.708,115,7.69,1.239,14.84,104.3116,10.31,11.52,58.13,0,110.4,13.05,11.10,77.0
"2016-05-14 00:25:30",1631502,6.794,121,8.66,1.39,15.21,104.3104,10.31,11.48,58.39,0,110.4,13.05,11.10,83.0
"2016-05-14 00:26:00",1631503,6.869,119.5,7.269,1.566,14.62,104.302,10.29,11.52,58.59,0,110.4,13.05,11.07,81.5
"2016-05-14 00:26:30",1631504,6.185,116.1,2.264,0.358,12.86,104.2966,10.27,11.34,58.26,0,110.4,13.1,11.06,78.1
"2016-05-14 00:27:00",1631505,6.28,115,1.897,0.181,13.11,104.2963,10.27,11.34,58.05,0,110.4,13.11,11.06,77.0
"2016-05-14 00:27:30",1631506,8.13,112.6,7.715,1.366,16.09,104.2969,10.27,11.5,58.07,0,110.4,13.06,11.06,74.6
"2016-05-14 00:28:00",1631507,8.25,113.2,7.508,1.451,16.25,104.2955,10.27,11.54,58,0,110.4,13.06,11.06,75.2
"2016-05-14 00:28:30",1631508,7.42,114.1,8.49,1.298,15.79,104.2909,10.26,11.51,57.92,0,110.4,13.06,11.05,76.1
"2016-05-14 00:29:00",1631509,7.327,114,6.81,1.388,15.22,104.287,10.25,11.4,57.85,0,110.4,13.06,11.04,76.0
"2016-05-14 00:29:30",1631510,7.325,112,6.46,1.316,14.76,104.2732,10.21,11.39,58.06,0,110.4,13.06,11.00,74.0
"2016-05-14 00:30:00",1631511,6.522,110.3,1.514,0.148,13.01,104.2713,10.21,11.27,58.1,0,110.4,13.11,11.00,72.3
"2016-05-14 00:30:30",1631512,7.227,113.4,5.956,1.282,14.56,104.2719,10.21,11.37,58.29,0,110.4,13.06,11.00,75.4
"2016-05-14 00:31:00",1631513,7.117,112.6,10.4,1.335,15.35,104.2734,10.21,11.44,58.68,0,110.4,13.06,11.00,74.6
"2016-05-14 00:31:30",1631514,7.329,107,9.63,1.581,15.75,104.2714,10.21,11.44,58.82,0,110.4,13.06,11.00,69.0
"2016-05-14 00:32:00",1631515,7.668,104,6.316,1.571,15.13,104.2701,10.2,11.37,58.56,0,110.4,13.06,10.99,66.0
"2016-05-14 00:32:30",1631516,7.494,108.1,8.69,1.499,15.37,104.2622,10.18,11.44,58.8,0,110.4,13.06,10.97,70.1
"2016-05-14 00:33:00",1631517,6.634,106.4,5.181,0.726,13.38,104.2592,10.18,11.28,58.79,0,110.4,13.06,10.96,68.4
"2016-05-14 00:33:30",1631518,6.203,108.4,3.119,0.271,12.99,104.2525,10.16,11.24,58.59,0,110.4,13.11,10.95,70.4
"2016-05-14 00:34:00",1631519,7.634,115.8,8.96,1.308,16.05,104.2472,10.15,11.35,59.08,0,110.4,13.06,10.93,77.8
"2016-05-14 00:34:30",1631520,7.516,108.7,6.496,1.329,14.8,104.2495,10.15,11.36,58.79,0,110.4,13.06,10.94,70.7
"2016-05-14 00:35:00",1631521,7.859,116.9,7.789,1.562,15.89,104.2525,10.16,11.33,58.91,0,110.4,13.06,10.95,78.9
"2016-05-14 00:35:30",1631522,7.347,121.4,8.68,1.358,15.59,104.2504,10.15,11.39,59.22,0,110.4,13.07,10.94,83.4
"2016-05-14 00:36:00",1631523,7.87,115.9,6.014,1.614,14.5,104.2516,10.16,11.32,59.15,0,110.4,13.07,10.95,77.9
"2016-05-14 00:36:30",1631524,6.99,113.7,8.28,1.46,14.52,104.256,10.17,11.23,59.35,0,110.4,13.07,10.96,75.7
"2016-05-14 00:37:00",1631525,7,105.6,7.327,1.141,14.2,104.2563,10.17,11.26,59.15,0,110.4,13.07,10.96,67.6
"2016-05-14 00:37:30",1631526,6.757,113,7.495,1.444,14.93,104.2501,10.15,11.24,58.76,0,110.4,13.07,10.94,75.0
"2016-05-14 00:38:00",1631527,6.474,115.6,8.38,1.252,14.49,104.2436,10.14,11.27,58.83,0,110.4,13.07,10.92,77.6
"2016-05-14 00:38:30",1631528,7.652,124.5,8.32,1.608,15.7,104.2307,10.1,11.35,59.05,0,110.4,13.06,10.89,86.5
"2016-05-14 00:39:00",1631529,7.35,125.3,8.68,1.409,15.7,104.226,10.09,11.32,58.89,0,110.4,13.06,10.88,87.3
"2016-05-14 00:39:30",1631530,7.597,121.3,8.42,1.347,15.79,104.2266,10.09,11.3,58.96,0,110.4,13.06,10.88,83.3
"2016-05-14 00:40:00",1631531,6.272,112.7,1.027,0.55,12.92,104.2295,10.1,11.11,58.68,0,110.4,13.06,10.89,74.7
"2016-05-14 00:40:30",1631532,6.905,120.4,7.61,1.381,14.69,104.2286,10.1,11.22,58.79,0,110.4,13.06,10.89,82.4
"2016-05-14 00:41:00",1631533,6.378,111.4,8.84,1.319,14.57,104.2286,10.1,11.23,59.03,0,110.4,13.06,10.89,73.4
"2016-05-14 00:41:30",1631534,7.004,112.6,8.85,1.62,15.84,104.2258,10.09,11.31,59.35,0,110.4,13.06,10.88,74.6
"2016-05-14 00:42:00",1631535,7.53,110.4,8.05,1.328,14.92,104.2222,10.08,11.18,59.01,0,110.4,13.06,10.87,72.4
"2016-05-14 00:42:30",1631536,7.392,112,7.457,1.294,14.98,104.216,10.07,11.26,58.85,0,110.4,13.06,10.85,74.0
"2016-05-14 00:43:00",1631537,8.42,117.4,8.41,1.331,15.27,104.2104,10.05,11.19,58.62,0,110.4,13.06,10.84,79.4
"2016-05-14 00:43:30",1631538,7.94,113.5,4.751,0.688,13.35,104.198,10.02,11.15,58.58,0,110.4,13.07,10.81,75.5
"2016-05-14 00:44:00",1631539,8.13,118.6,7.566,1.467,15.69,104.1963,10.02,11.18,58.85,0,110.4,13.07,10.80,80.6
"2016-05-14 00:44:30",1631540,7.724,119,6.71,1.449,15.15,104.1963,10.02,11.25,58.86,0,110.4,13.07,10.80,81.0
"2016-05-14 00:45:00",1631541,7.67,121.7,8.08,1.761,16.11,104.1954,10.01,11.21,58.91,0,110.4,13.07,10.80,83.7
"2016-05-14 00:45:30",1631542,6.939,112.3,6.849,1.425,14.35,104.1898,10,11.16,58.88,0,110.4,13.07,10.79,74.3
"2016-05-14 00:46:00",1631543,8.22,115.5,7.031,1.484,15.71,104.1816,9.98,11.18,58.85,0,110.3,13.07,10.77,77.5
"2016-05-14 00:46:30",1631544,6.938,104.4,1.462,0.167,12.89,104.1782,9.97,11.05,58.74,0,110.4,13.12,10.76,66.4
"2016-05-14 00:47:00",1631545,7.848,108.9,8.07,1.353,14.64,104.165,9.94,11.1,58.78,0,110.3,13.08,10.72,70.9
"2016-05-14 00:47:30",1631546,8.07,107.2,7.676,1.349,14.79,104.1624,9.93,11.1,58.71,0,110.4,13.08,10.72,69.2
"2016-05-14 00:48:00",1631547,8.26,111.1,8.01,1.532,15.29,104.1624,9.93,11.16,58.8,0,110.4,13.08,10.72,73.1
"2016-05-14 00:48:30",1631548,8.31,114.7,7.264,1.482,15.6,104.1624,9.93,11.14,58.85,0,110.4,13.08,10.72,76.7
"2016-05-14 00:49:00",1631549,7.437,110.5,6.79,1.342,14.74,104.1599,9.92,11.04,58.86,0,110.4,13.08,10.71,72.5
"2016-05-14 00:49:30",1631550,7.532,110.9,8.1,1.236,14.36,104.1534,9.91,11.01,58.91,0,110.4,13.08,10.69,72.9
"2016-05-14 00:50:00",1631551,7.183,105.6,1.658,0.499,12.81,104.1385,9.87,10.93,58.71,0,110.4,13.08,10.65,67.6
"2016-05-14 00:50:30",1631552,8.17,113.4,8.15,1.466,15.31,104.1286,9.84,11.12,58.86,0,110.4,13.08,10.63,75.4
"2016-05-14 00:51:00",1631553,8.42,110.6,6.992,1.203,14.66,104.1289,9.84,11.04,58.7,0,110.4,13.08,10.63,72.6
"2016-05-14 00:51:30",1631554,8.23,109,8.44,1.631,15.63,104.1286,9.84,11.04,58.71,0,110.4,13.08,10.63,71.0
"2016-05-14 00:52:00",1631555,8.21,111.7,7.983,1.463,15.71,104.1286,9.84,11.14,58.98,0,110.4,13.08,10.63,73.7
"2016-05-14 00:52:30",1631556,7.158,106.1,6.331,1.238,14.34,104.1286,9.84,11.06,58.98,0,110.4,13.08,10.63,68.1
"2016-05-14 00:53:00",1631557,6.202,100.2,3.697,0.663,13,104.1286,9.84,10.89,59.13,0,110.4,13.08,10.63,62.2
"2016-05-14 00:53:30",1631558,7.416,109.7,7.544,1.58,14.74,104.1255,9.83,10.98,59.34,0,110.3,13.08,10.62,71.7
"2016-05-14 00:54:00",1631559,7.542,110.1,6.963,1.386,14.71,104.1205,9.82,11,59.43,0,110.4,13.08,10.61,72.1
"2016-05-14 00:54:30",1631560,7.797,110.7,7.937,1.519,15.73,104.1158,9.81,11.01,59.66,0,110.4,13.08,10.60,72.7
"2016-05-14 00:55:00",1631561,8.22,109.5,10.09,1.436,15.36,104.1147,9.81,11.06,59.9,0,110.4,13.08,10.59,71.5
"2016-05-14 00:55:30",1631562,7.827,109.4,6.362,1.55,15.43,104.1034,9.78,11.02,59.88,0,110.3,13.07,10.56,71.4
"2016-05-14 00:56:00",1631563,7.39,105.2,8.78,1.342,14.24,104.1027,9.78,10.94,59.9,0,110.3,13.07,10.56,67.2
"2016-05-14 00:56:30",1631564,6.97,106.3,2.796,0.762,13.18,104.1015,9.77,10.89,59.94,0,110.4,13.08,10.56,68.3
"2016-05-14 00:57:00",1631565,8.52,116.7,7.213,1.39,15.73,104.1044,9.78,10.97,59.89,0,110.3,13.07,10.57,78.7
"2016-05-14 00:57:30",1631566,7.31,111.4,5.619,1.138,14.45,104.1036,9.78,10.97,59.7,0,110.4,13.08,10.57,73.4
"2016-05-14 00:58:00",1631567,8.02,116.8,8.18,1.542,15.72,104.1025,9.78,10.96,59.46,0,110.4,13.07,10.56,78.8
"2016-05-14 00:58:30",1631568,7.77,114.5,7.213,1.481,14.8,104.0969,9.76,10.95,59.41,0,110.3,13.07,10.55,76.5
"2016-05-14 00:59:00",1631569,7.111,114,7.643,1.41,14.62,104.0925,9.75,10.95,59.67,0,110.3,13.07,10.54,76.0
"2016-05-14 00:59:30",1631570,6.187,108.4,4.573,0.638,12.88,104.0885,9.74,10.8,59.62,0,110.3,13.07,10.53,70.4
"2016-05-14 01:00:00",1631571,7.739,112.1,6.909,1.412,15.04,104.0923,9.75,10.88,59.58,0,110.3,13.08,10.54,74.1
"2016-05-14 01:00:30",1631572,6.848,110.9,5.833,1.317,14.23,104.0915,9.75,10.89,59.49,0,110.3,13.08,10.53,72.9
"2016-05-14 01:01:00",1631573,7.66,121.2,7.904,1.699,15.74,104.0853,9.73,10.97,59.79,0,110.3,13.08,10.52,83.2
"2016-05-14 01:01:30",1631574,7.111,119,7.131,1.462,14.4,104.0826,9.73,10.9,59.75,0,110.3,13.08,10.51,81.0
"2016-05-14 01:02:00",1631575,6.918,115.3,7.276,1.392,15.09,104.0817,9.72,10.96,59.63,0,110.3,13.08,10.51,77.3
"2016-05-14 01:02:30",1631576,6.358,109.2,5.13,1.208,13.4,104.0817,9.72,10.79,59.37,0,110.3,13.08,10.51,71.2
"2016-05-14 01:03:00",1631577,6.644,110.7,4.261,0.98,13.2,104.0835,9.73,10.74,59.37,0,110.3,13.08,10.51,72.7
"2016-05-14 01:03:30",1631578,7.516,120.8,6.973,1.444,15.42,104.078,9.71,10.92,59.67,0,110.3,13.09,10.50,82.8
"2016-05-14 01:04:00",1631579,7.435,114.3,7.198,1.577,14.29,104.0735,9.7,10.84,59.53,0,110.3,13.09,10.49,76.3
"2016-05-14 01:04:30",1631580,8.31,116.9,7.742,1.51,15.68,104.0718,9.7,10.91,59.54,0,110.3,13.09,10.48,78.9
"2016-05-14 01:05:00",1631581,7.884,118.8,8.22,1.508,15.08,104.0693,9.69,10.89,59.65,0,110.3,13.09,10.48,80.8
"2016-05-14 01:05:30",1631582,7.445,116.3,7.574,1.454,14.67,104.0598,9.67,10.79,59.65,0,110.3,13.09,10.45,78.3
"2016-05-14 01:06:00",1631583,6.122,112.1,2.118,0.142,12.52,104.0564,9.66,10.68,59.58,0,110.3,13.13,10.44,74.1
"2016-05-14 01:06:30",1631584,7.642,119.4,7.222,1.452,14.75,104.0576,9.66,10.79,59.67,0,110.3,13.09,10.45,81.4
"2016-05-14 01:07:00",1631585,7.079,116.5,7.741,1.355,14.96,104.0585,9.66,10.87,59.74,0,110.3,13.09,10.45,78.5
"2016-05-14 01:07:30",1631586,7.495,115.5,7.418,1.4,14.94,104.0602,9.67,10.78,59.7,0,110.3,13.09,10.45,77.5
"2016-05-14 01:08:00",1631587,7.918,117.8,8.47,1.593,15.55,104.0569,9.66,10.91,60.1,0,110.3,13.09,10.45,79.8
"2016-05-14 01:08:30",1631588,7.407,121.1,7.722,1.569,14.5,104.0513,9.65,10.74,60.17,0,110.3,13.09,10.43,83.1
"2016-05-14 01:09:00",1631589,7.018,118.9,6.468,1.318,14.14,104.0453,9.63,10.77,60.32,0,110.3,13.09,10.42,80.9
"2016-05-14 01:09:30",1631590,7.52,116.7,7.405,1.165,13.87,104.0425,9.62,10.69,60.25,0,110.3,13.09,10.41,78.7
"2016-05-14 01:10:00",1631591,7.542,122.8,6.222,1.386,15.45,104.0392,9.61,10.83,60.63,0,110.3,13.09,10.40,84.8
"2016-05-14 01:10:30",1631592,6.509,120.3,8.36,1.434,14.51,104.0411,9.62,10.77,60.71,0,110.3,13.09,10.40,82.3
"2016-05-14 01:11:00",1631593,7.29,118.5,6.429,1.413,15.01,104.036,9.61,10.8,60.96,0,110.3,13.09,10.39,80.5
"2016-05-14 01:11:30",1631594,7.711,115.2,6.592,1.502,14.97,104.031,9.59,10.71,60.73,0,110.3,13.09,10.38,77.2
"2016-05-14 01:12:00",1631595,6.736,106.9,6.059,1.403,13.91,104.0287,9.59,10.76,60.57,0,110.3,13.09,10.37,68.9
"2016-05-14 01:12:30",1631596,6.865,110.1,3.965,0.572,12.67,104.0284,9.59,10.61,60.33,0,110.3,13.09,10.37,72.1
"2016-05-14 01:13:00",1631597,7.961,114.4,8.88,1.355,15.52,104.0284,9.59,10.78,60.4,0,110.3,13.08,10.37,76.4
"2016-05-14 01:13:30",1631598,7.231,112.3,6.34,1.211,14.08,104.0282,9.59,10.69,60.35,0,110.3,13.08,10.37,74.3
"2016-05-14 01:14:00",1631599,7.75,111.8,5.099,1.45,15.38,104.025,9.58,10.77,60.54,0,110.3,13.08,10.36,73.8
"2016-05-14 01:14:30",1631600,7.102,102.4,7.547,1.331,14.1,104.0191,9.56,10.74,60.73,0,110.3,13.08,10.35,64.4
"2016-05-14 01:15:00",1631601,7.922,111.4,12.09,1.432,14.96,104.0121,9.54,10.69,60.84,0,110.3,13.08,10.33,73.4
"2016-05-14 01:15:30",1631602,7.782,107.7,7.397,1.16,13.68,104.0025,9.52,10.64,60.57,0,110.3,13.09,10.31,69.7
"2016-05-14 01:16:00",1631603,7.891,107.9,7.338,1.374,14.63,103.9957,9.5,10.71,60.54,0,110.3,13.08,10.29,69.9
"2016-05-14 01:16:30",1631604,8.39,111.2,8.51,1.366,14.72,103.9946,9.5,10.69,60.56,0,110.3,13.08,10.29,73.2
"2016-05-14 01:17:00",1631605,8.56,111.9,7.86,1.466,14.64,103.9946,9.5,10.62,60.67,0,110.3,13.09,10.29,73.9
"2016-05-14 01:17:30",1631606,8.52,112.7,8.21,1.527,14.91,103.9946,9.5,10.68,60.87,0,110.3,13.09,10.29,74.7
"2016-05-14 01:18:00",1631607,8.17,109.6,6.559,1.475,14.35,103.9864,9.48,10.62,61.05,0,110.3,13.09,10.26,71.6
"2016-05-14 01:18:30",1631608,7.514,111.8,6.464,1.289,13.82,103.9799,9.46,10.64,61.37,0,110.3,13.09,10.25,73.8
"2016-05-14 01:19:00",1631609,8.27,110.5,8.66,1.425,14.44,103.9768,9.45,10.67,61.24,0,110.3,13.09,10.24,72.5
"2016-05-14 01:19:30",1631610,8.8,108.2,7.531,1.225,14.94,103.9627,9.42,10.6,61.01,0,110.3,13.09,10.20,70.2
"2016-05-14 01:20:00",1631611,8.96,108,7.346,1.564,14.95,103.9607,9.41,10.59,60.97,0,110.3,13.09,10.20,70.0
"2016-05-14 01:20:30",1631612,8.93,108.7,8.03,1.504,14.55,103.9607,9.41,10.61,60.93,0,110.3,13.09,10.20,70.7
"2016-05-14 01:21:00",1631613,8.57,113.3,7.502,1.473,14.55,103.9571,9.4,10.64,61.08,0,110.3,13.1,10.19,75.3
"2016-05-14 01:21:30",1631614,8.77,114.3,7.87,1.429,15.09,103.9472,9.38,10.56,61.09,0,110.3,13.09,10.16,76.3
"2016-05-14 01:22:00",1631615,8.99,113.3,8.6,1.393,15.29,103.9432,9.37,10.59,60.94,0,110.3,13.09,10.15,75.3
"2016-05-14 01:22:30",1631616,7.815,115.2,8.5,1.318,13.73,103.9317,9.34,10.5,60.95,0,110.3,13.1,10.12,77.2
"2016-05-14 01:23:00",1631617,7.448,116.3,8.41,1.388,13.84,103.9269,9.33,10.52,61.33,0,110.3,13.1,10.11,78.3
"2016-05-14 01:23:30",1631618,7.559,129,8.98,1.513,14.9,103.9269,9.33,10.57,61.81,0,110.3,13.1,10.11,91.0
"2016-05-14 01:24:00",1631619,7.694,125.6,7.889,1.237,13.85,103.9258,9.32,10.46,61.45,0,110.3,13.1,10.11,87.6
"2016-05-14 01:24:30",1631620,7.436,125.7,9.02,1.611,14.76,103.9218,9.31,10.56,61.64,0,110.3,13.1,10.10,87.7
"2016-05-14 01:25:00",1631621,8.1,125.7,8.13,1.838,15.21,103.9142,9.29,10.47,61.73,0,110.3,13.1,10.08,87.7
"2016-05-14 01:25:30",1631622,7.828,123,7.98,1.376,13.58,103.9068,9.28,10.44,61.44,0,110.3,13.1,10.06,85.0
"2016-05-14 01:26:00",1631623,8.29,125.7,7.56,1.643,14.37,103.8998,9.26,10.44,61.35,0,110.3,13.1,10.04,87.7
"2016-05-14 01:26:30",1631624,8.43,123.1,7.549,1.308,14.04,103.8939,9.24,10.41,61.26,0,110.3,13.1,10.03,85.1
"2016-05-14 01:27:00",1631625,8.32,126.8,6.779,1.491,14.29,103.8936,9.24,10.5,61.17,0,110.3,13.1,10.03,88.8
"2016-05-14 01:27:30",1631626,8.26,123.8,6.741,1.328,13.6,103.8905,9.23,10.42,61.06,0,110.3,13.1,10.02,85.8
"2016-05-14 01:28:00",1631627,8.54,125.8,8.95,1.669,14.87,103.8815,9.21,10.44,61.17,0,110.3,13.1,10.00,87.8
"2016-05-14 01:28:30",1631628,8.37,126.2,6.452,1.507,14.76,103.866,9.17,10.4,61.1,0,110.3,13.1,9.96,88.2
"2016-05-14 01:29:00",1631629,8.26,126.9,7.079,1.521,14.75,103.8639,9.17,10.4,61.05,0,110.3,13.09,9.95,88.9
"2016-05-14 01:29:30",1631630,8.21,125.8,7.868,1.323,13.85,103.8647,9.17,10.34,60.97,0,110.3,13.09,9.95,87.8
"2016-05-14 01:30:00",1631631,7.933,123.3,7.138,1.335,14.33,103.8601,9.16,10.42,61.24,0,110.3,13.09,9.94,85.3
"2016-05-14 01:30:30",1631632,7.869,117,7.329,1.23,13.97,103.85,9.13,10.38,61.31,0,110.3,13.09,9.91,79.0
"2016-05-14 01:31:00",1631633,8.57,119.2,8.99,1.367,15.28,103.8456,9.12,10.36,61.13,0,110.3,13.09,9.90,81.2
"2016-05-14 01:31:30",1631634,8.27,122.2,6.925,1.405,14.3,103.8344,9.09,10.27,61.05,0,110.3,13.09,9.87,84.2
"2016-05-14 01:32:00",1631635,7.915,121.2,6.942,1.354,14.14,103.8344,9.09,10.33,61.18,0,110.3,13.09,9.87,83.2
"2016-05-14 01:32:30",1631636,8.56,122.9,7.746,1.494,14.9,103.8344,9.09,10.27,61.2,0,110.3,13.09,9.87,84.9
"2016-05-14 01:33:00",1631637,8.06,118.5,6.882,1.448,14.01,103.8286,9.08,10.29,61.27,0,110.3,13.09,9.86,80.5
"2016-05-14 01:33:30",1631638,7.881,121.2,6.585,1.341,13.53,103.823,9.06,10.21,61.1,0,110.3,13.09,9.85,83.2
"2016-05-14 01:34:00",1631639,8.46,123.7,7.113,1.415,14.81,103.8158,9.04,10.32,61.26,0,110.3,13.1,9.83,85.7
"2016-05-14 01:34:30",1631640,8.03,118.8,7.509,1.332,14.53,103.8117,9.03,10.28,61.43,0,110.3,13.1,9.82,80.8
"2016-05-14 01:35:00",1631641,8.08,122.3,7.88,1.435,14.52,103.8108,9.03,10.22,61.39,0,110.3,13.1,9.81,84.3
"2016-05-14 01:35:30",1631642,8.11,120.6,7.205,1.417,13.98,103.8114,9.03,10.2,61.47,0,110.3,13.1,9.82,82.6
"2016-05-14 01:36:00",1631643,8.36,122.8,7.452,1.435,14.5,103.8047,9.01,10.23,61.69,0,110.3,13.1,9.80,84.8
"2016-05-14 01:36:30",1631644,8.42,122.6,7.16,1.465,14.44,103.8,9,10.16,61.66,0,110.3,13.1,9.79,84.6
"2016-05-14 01:37:00",1631645,7.939,122.4,8.39,1.427,14.5,103.7983,9,10.26,61.97,0,110.3,13.1,9.78,84.4
"2016-05-14 01:37:30",1631646,8.44,118.1,6.749,1.314,13.66,103.8003,9,10.19,62.05,0,110.3,13.1,9.79,80.1
"2016-05-14 01:38:00",1631647,9.02,124,7.34,1.464,15.33,103.7936,8.99,10.21,62.11,0,110.3,13.1,9.77,86.0
"2016-05-14 01:38:30",1631648,7.879,118.1,7.18,1.468,13.77,103.7866,8.97,10.1,62.04,0,110.3,13.1,9.75,80.1
"2016-05-14 01:39:00",1631649,8.04,119.8,6.904,1.39,14.79,103.7857,8.97,10.21,62.15,0,110.3,13.1,9.75,81.8
"2016-05-14 01:39:30",1631650,8.18,121.5,8.58,1.515,14.43,103.7866,8.97,10.17,62.24,0,110.3,13.1,9.75,83.5
"2016-05-14 01:40:00",1631651,7.792,118.2,6.053,1.362,13.85,103.786,8.97,10.1,62.32,0,110.3,13.1,9.75,80.2
"2016-05-14 01:40:30",1631652,8.02,119.9,6.917,1.356,14.29,103.7837,8.96,10.15,62.48,0,110.3,13.1,9.74,81.9
"2016-05-14 01:41:00",1631653,7.919,117.8,6.821,1.378,13.76,103.7815,8.96,10.07,62.23,0,110.3,13.1,9.74,79.8
"2016-05-14 01:41:30",1631654,8.31,120.1,8.49,1.507,14.92,103.7734,8.93,10.13,62.23,0,110.3,13.11,9.72,82.1
"2016-05-14 01:42:00",1631655,7.715,115.7,7.546,1.214,13.48,103.7644,8.91,10.07,62.36,0,110.3,13.11,9.69,77.7
"2016-05-14 01:42:30",1631656,8.4,116.4,7.628,1.444,14.7,103.7559,8.89,10.11,62.33,0,110.3,13.11,9.67,78.4
"2016-05-14 01:43:00",1631657,7.47,115.6,8.63,1.39,13.47,103.7565,8.89,10.06,62.37,0,110.3,13.11,9.67,77.6
"2016-05-14 01:43:30",1631658,8.12,121.4,7.375,1.462,14.79,103.7562,8.89,10.05,62.59,0,110.3,13.11,9.67,83.4
"2016-05-14 01:44:00",1631659,7.239,117.6,7.028,1.377,13.4,103.7577,8.89,10,62.56,0,110.2,13.11,9.68,79.6
"2016-05-14 01:44:30",1631660,6.91,114.9,7.139,1.362,13.58,103.7589,8.9,10.07,62.55,0,110.3,13.11,9.68,76.9
"2016-05-14 01:45:00",1631661,6.808,116.4,5.79,1.469,13.93,103.7589,8.9,10.01,62.74,0,110.2,13.11,9.68,78.4
"2016-05-14 01:45:30",1631662,6.521,120.2,7.654,1.4,13.57,103.7563,8.89,9.96,62.86,0,110.2,13.11,9.67,82.2
"2016-05-14 01:46:00",1631663,6.749,120.6,7.488,1.229,13.84,103.751,8.88,10.07,62.84,0,110.2,13.1,9.66,82.6
"2016-05-14 01:46:30",1631664,7.139,117.5,7.645,1.482,13.99,103.7456,8.86,9.97,63.08,0,110.2,13.1,9.65,79.5
"2016-05-14 01:47:00",1631665,6.805,114.1,7.343,1.198,13.44,103.7417,8.85,10.01,63.25,0,110.2,13.1,9.64,76.1
"2016-05-14 01:47:30",1631666,7.252,117.3,6.884,1.545,14.64,103.7329,8.83,9.99,63.28,0,110.2,13.1,9.61,79.3
"2016-05-14 01:48:00",1631667,7.507,116.6,7.256,1.568,13.8,103.7264,8.81,9.95,63.1,0,110.2,13.1,9.60,78.6
"2016-05-14 01:48:30",1631668,7.005,114.7,7.942,1.387,13.78,103.725,8.81,10.03,62.83,0,110.2,13.1,9.59,76.7
"2016-05-14 01:49:00",1631669,7.097,116.5,7.072,1.435,13.74,103.725,8.81,9.93,62.89,0,110.2,13.1,9.59,78.5